Skip Page Navigation
NASA JPL Caltech
NASA Logo - Jet Propulsion Laboratory + View the NASA Portal
+ Center for Near-Earth Object Studies
JPL Home Earth Solar System Stars & Galaxies Technology
JPL Solar System Dynamics
BODIES ORBITS EPHEMERIDES TOOLS PHYSICAL DATA DISCOVERY FAQ SITE MAP
IMPORTANT: The SSD Announcement email list is now available. Major changes are coming in the near future, including possible hostname and/or URL changes. To be notified of such changes, subscribe to this email list.

Please visit this page for more details.


JPL Small-Body Database Browser
Search: [ help ]  
66207 Carpi (1999 CB1)
Classification: Main-belt Asteroid          SPK-ID: 2066207
Ephemeris | Orbit Diagram | Orbital Elements | Mission Design | Physical Parameters | Discovery Circumstances | Close-Approach Data ]

[ show orbit diagram ]
Orbital Elements at Epoch 2459000.5 (2020-May-31.0) TDB
Reference: JPL 17 (heliocentric ecliptic J2000)
 Element Value Uncertainty (1-sigma)   Units 
e .0313054614169587 6.3044e-08  
a 2.98218799392782 2.3847e-08 au
q 2.888829222745795 1.9543e-07 au
i 6.850449501412107 6.0589e-06 deg
node 128.8336113479311 5.14e-05 deg
peri 263.7245165859447 0.00010764 deg
M 152.05595286283 9.3541e-05 deg
tp 2458205.985405261187
(2018-Mar-28.48540526)
0.00048813 TDB
period 1881.052656741408
5.15
2.2562e-05
6.177e-08
d
yr
n .1913822022524539 2.2956e-09 deg/d
Q 3.075546765109845 2.4593e-08 au
  Orbit Determination Parameters
   # obs. used (total)      702  
   data-arc span      7334 days (20.08 yr)  
   first obs. used      1999-02-06  
   last obs. used      2019-03-07  
   planetary ephem.      DE431  
   SB-pert. ephem.      SB431-N16  
   condition code      0  
   norm. resid. RMS      .63377  
   source      ORB  
   producer      Otto Matic  
   solution date      2019-Jul-13 11:37:16  

Additional Information
 Earth MOID = 1.90336 au 
 Jupiter MOID = 2.07181 au 
 T_jup = 3.247 
[ show covariance matrix ]

Ephemeris | Orbit Diagram | Orbital Elements | Mission Design | Physical Parameters | Discovery Circumstances | Close-Approach Data ]

Physical Parameter Table
Parameter Symbol Value Units Sigma Reference Notes
absolute magnitude H 14.6   n/a MPO468587  
diameter diameter 5.831 km 0.111 urn:nasa:pds:neowise_diameters_albedos::2.0[mainbelt] (http://adsabs.harvard.edu/abs/2011ApJ...741...68M)  
geometric albedo albedo 0.082   0.013 urn:nasa:pds:neowise_diameters_albedos::2.0[mainbelt] (http://adsabs.harvard.edu/abs/2011ApJ...741...68M)  

66207 Carpi           Discovered 1999 Feb. 6 at the Cavezzo Observatory.
Carpi, a town in northern Italy, is known worldwide for its textile (especially knitwear) manufacturing and mechanical (especially woodworking) machinery.
NOTE: some special characters may not display properly (any characters within {} are an attempt to place the proper accent above a character)
Reference: 20040504/MPCPages.arcLast Updated: 2004-05-11

[ show close-approach data ]
Alternate Designations
 1999 CB1 = 2000 HO75 = 2001 QJ225 = 2002 UQ26 
Ephemeris | Orbit Diagram | Orbital Elements | Mission Design | Physical Parameters | Discovery Circumstances | Close-Approach Data ]
ABOUT SSD CREDITS/AWARDS PRIVACY/COPYRIGHT GLOSSARY LINKS
FirstGov 2020-Feb-19 17:33 UT
(server date/time)  
NASA Home Page
Site Manager:   Ryan S. Park
Webmaster  Alan B. Chamberlin